Location: Arboyeti
(42.1122°N, 44.6017°E)
Time: 04:26:15
(UTC+00:00)

SL-16 R/B - Pass Details

Date: 19 April 2021
Orbit: 840 x 849 km, 71.0° (Epoch: 09 May)

Event Time Altitude Azimuth Distance (km) Brightness Sun altitude
Rises 16:50:48 0° 350° (N) 3,422 5.9 -11.7°
Reaches altitude 10° 16:55:19 10° 23° (NNE) 2,480 4.7 -12.5°
Maximum altitude 16:57:09 11° 42° (NE) 2,373 4.4 -12.8°
Drops below altitude 10° 16:58:58 10° 61° (ENE) 2,475 4.3 -13.1°
Enters shadow 17:00:26 - 74° (ENE) 2,693 4.4 -13.3°
